,,,PA_Meas_PMT16A,,PR_Meas_QMR101_102,,RH_Meas_QMH101,,SR_Meas_QMS101,,TA_Meas_QMH101,,GenWind,,GenWind,
date,time,status,PA,status,PR,status,RH,status,SR,status,TA,status,DirAvg,status,SpdAvg,
2010-09-20, 00:00:05,VALID,1008.79,VALID,0,VALID,103.451,VALID,0,VALID,24.4345,VALID,101,VALID,0,
2010-09-20, 00:01:05,VALID,1008.79,VALID,0,VALID,103.459,VALID,0.105969,VALID,24.4327,VALID,127,VALID,0,
2010-09-20, 00:02:05,VALID,1008.8,VALID,0,VALID,103.466,VALID,0.105969,VALID,24.4345,VALID,125,VALID,0,
2010-09-20, 00:03:05,VALID,1008.79,VALID,0,VALID,103.474,VALID,0.105969,VALID,24.4345,VALID,125,VALID,0,
2010-09-20, 00:04:05,VALID,1008.77,VALID,0,VALID,103.497,VALID,0,VALID,24.4132,VALID,125,VALID,0,
2010-09-20, 00:05:05,VALID,1008.74,VALID,0,VALID,103.466,VALID,0.105969,VALID,24.4132,VALID,125,VALID,0,
2010-09-20, 00:06:05,VALID,1008.75,VALID,0,VALID,103.481,VALID,0.105969,VALID,24.4345,VALID,126,VALID,0,
2010-09-20, 00:07:05,VALID,1008.75,VALID,0,VALID,103.466,VALID,0,VALID,24.415,VALID,125,VALID,0,
2010-09-20, 00:08:05,VALID,1008.75,VALID,0,VALID,103.481,VALID,0,VALID,24.415,VALID,126,VALID,0,
2010-09-20, 00:09:05,VALID,1008.74,VALID,0,VALID,103.497,VALID,0.105969,VALID,24.4345,VALID,125,VALID,0,
2010-09-20, 00:10:05,VALID,1008.72,VALID,0,VALID,103.497,VALID,0.105969,VALID,24.415,VALID,126,VALID,0,
2010-09-20, 00:11:05,VALID,1008.7,VALID,0,VALID,103.489,VALID,0,VALID,24.415,VALID,125,VALID,0,
2010-09-20, 00:12:05,VALID,1008.7,VALID,0,VALID,103.504,VALID,0.105969,VALID,24.3956,VALID,125,VALID,0,
2010-09-20, 00:13:05,VALID,1008.68,VALID,0,VALID,103.504,VALID,0,VALID,24.3956,VALID,125,VALID,0,
2010-09-20, 00:14:05,VALID,1008.66,VALID,0,VALID,103.497,VALID,0,VALID,24.3761,VALID,125,VALID,0,
2010-09-20, 00:15:05,VALID,1008.66,VALID,0,VALID,103.512,VALID,0.105969,VALID,24.3761,VALID,125,VALID,0,
2010-09-20, 00:16:05,VALID,1008.62,VALID,0,VALID,103.512,VALID,0,VALID,24.3547,VALID,125,VALID,0,
2010-09-20, 00:17:05,VALID,1008.62,VALID,0,VALID,103.52,VALID,0,VALID,24.3566,VALID,125,VALID,0,
2010-09-20, 00:18:05,VALID,1008.6,VALID,0,VALID,103.504,VALID,0,VALID,24.3352,VALID,125,VALID,0,
2010-09-20, 00:19:05,VALID,1008.59,VALID,0,VALID,103.527,VALID,0,VALID,24.3158,VALID,125,VALID,0,
2010-09-20, 00:20:05,VALID,1008.55,VALID,0,VALID,103.52,VALID,0.105969,VALID,24.3158,VALID,125,VALID,0,
2010-09-20, 00:21:05,VALID,1008.55,VALID,0,VALID,103.497,VALID,0,VALID,24.3176,VALID,126,VALID,0,
2010-09-20, 00:22:05,VALID,1008.5,VALID,0,VALID,103.512,VALID,0,VALID,24.3371,VALID,126,VALID,0,
2010-09-20, 00:23:05,VALID,1008.46,VALID,0,VALID,103.489,VALID,0,VALID,24.3352,VALID,160,VALID,0,
2010-09-20, 00:24:05,VALID,1008.5,VALID,0,VALID,103.481,VALID,0.105969,VALID,24.3352,VALID,186,VALID,0,
2010-09-20, 00:25:05,VALID,1008.47,VALID,0,VALID,103.52,VALID,0.105969,VALID,24.3371,VALID,186,VALID,0,
2010-09-20, 00:26:05,VALID,1008.44,VALID,0,VALID,103.535,VALID,0.105969,VALID,24.3371,VALID,186,VALID,0,
2010-09-20, 00:27:05,VALID,1008.42,VALID,0,VALID,103.512,VALID,0,VALID,24.3371,VALID,186,VALID,0,
2010-09-20, 00:28:05,VALID,1008.39,VALID,0,VALID,103.52,VALID,0,VALID,24.2963,VALID,186,VALID,0,
2010-09-20, 00:29:05,VALID,1008.35,VALID,0,VALID,103.489,VALID,0.105969,VALID,24.3158,VALID,186,VALID,0,
2010-09-20, 00:30:05,VALID,1008.34,VALID,0,VALID,103.504,VALID,0,VALID,24.3158,VALID,186,VALID,0,
2010-09-20, 00:31:05,VALID,1008.28,VALID,0,VALID,103.504,VALID,0.105969,VALID,24.3158,VALID,186,VALID,0,
2010-09-20, 00:32:05,VALID,1008.26,VALID,0,VALID,103.497,VALID,0.105969,VALID,24.3158,VALID,186,VALID,0,
2010-09-20, 00:33:05,VALID,1008.23,VALID,0,VALID,103.504,VALID,0,VALID,24.3158,VALID,186,VALID,0,
2010-09-20, 00:34:05,VALID,1008.21,VALID,0,VALID,103.512,VALID,0,VALID,24.3371,VALID,186,VALID,0,
2010-09-20, 00:35:05,VALID,1008.17,VALID,0,VALID,103.504,VALID,0.105969,VALID,24.3371,VALID,186,VALID,0,
2010-09-20, 00:36:05,VALID,1008.17,VALID,0,VALID,103.504,VALID,0.105969,VALID,24.3352,VALID,186,VALID,0,
2010-09-20, 00:37:05,VALID,1008.16,VALID,0,VALID,103.52,VALID,0,VALID,24.3566,VALID,186,VALID,0,
2010-09-20, 00:38:05,VALID,1008.14,VALID,0,VALID,103.497,VALID,0.105969,VALID,24.3352,VALID,186,VALID,0,
2010-09-20, 00:39:05,VALID,1008.13,VALID,0,VALID,103.504,VALID,0.105969,VALID,24.3352,VALID,186,VALID,0,
2010-09-20, 00:40:05,VALID,1008.13,VALID,0,VALID,103.52,VALID,0.105969,VALID,24.3352,VALID,186,VALID,0,
2010-09-20, 00:41:05,VALID,1008.15,VALID,0,VALID,103.512,VALID,0.105969,VALID,24.3566,VALID,186,VALID,0,
2010-09-20, 00:42:05,VALID,1008.13,VALID,0,VALID,103.52,VALID,0.105969,VALID,24.3371,VALID,186,VALID,0,
2010-09-20, 00:43:05,VALID,1008.14,VALID,0,VALID,103.504,VALID,0.105969,VALID,24.3352,VALID,186,VALID,0,
2010-09-20, 00:44:05,VALID,1008.12,VALID,0,VALID,103.504,VALID,0,VALID,24.3352,VALID,186,VALID,0,
2010-09-20, 00:45:05,VALID,1008.13,VALID,0,VALID,103.52,VALID,0.105969,VALID,24.3158,VALID,186,VALID,0,
2010-09-20, 00:46:05,VALID,1008.12,VALID,0,VALID,103.504,VALID,0.105969,VALID,24.3158,VALID,186,VALID,0,
2010-09-20, 00:47:05,VALID,1008.13,VALID,0,VALID,103.497,VALID,0.105969,VALID,24.3371,VALID,142,VALID,0,
2010-09-20, 00:48:05,VALID,1008.13,VALID,0,VALID,103.52,VALID,0.105969,VALID,24.3352,VALID,90,VALID,0,
2010-09-20, 00:49:05,VALID,1008.15,VALID,0,VALID,103.497,VALID,0.105969,VALID,24.3761,VALID,90,VALID,0,
2010-09-20, 00:50:05,VALID,1008.13,VALID,0,VALID,103.504,VALID,0,VALID,24.3566,VALID,122,VALID,0.869531,
2010-09-20, 00:51:05,VALID,1008.13,VALID,0,VALID,103.52,VALID,0.105969,VALID,24.3547,VALID,113,VALID,0.709766,
2010-09-20, 00:52:05,VALID,1008.13,VALID,0,VALID,103.497,VALID,0,VALID,24.3761,VALID,110,VALID,0.691016,
2010-09-20, 00:53:05,VALID,1008.12,VALID,0,VALID,103.52,VALID,0.105969,VALID,24.3761,VALID,101,VALID,0.833594,
2010-09-20, 00:54:05,VALID,1008.1,VALID,0,VALID,103.504,VALID,0.105969,VALID,24.3742,VALID,106,VALID,0.99375,
2010-09-20, 00:55:05,VALID,1008.11,VALID,0,VALID,103.527,VALID,0.105969,VALID,24.3956,VALID,111,VALID,0.632813,
2010-09-20, 00:56:05,VALID,1008.09,VALID,0,VALID,103.527,VALID,0,VALID,24.3956,VALID,98,VALID,0.545703,
2010-09-20, 00:57:05,VALID,1008.07,VALID,0,VALID,103.527,VALID,0.105969,VALID,24.3742,VALID,116,VALID,0.752344,
2010-09-20, 00:58:05,VALID,1008.06,VALID,0,VALID,103.512,VALID,0.105969,VALID,24.3742,VALID,113,VALID,0.813281,
2010-09-20, 00:59:05,VALID,1008.07,VALID,0,VALID,103.527,VALID,0,VALID,24.3956,VALID,106,VALID,0.578906,
2010-09-20, 01:00:05,VALID,1008.06,VALID,0,VALID,103.542,VALID,0,VALID,24.3761,VALID,106,VALID,0.587891,
2010-09-20, 01:01:05,VALID,1008.04,VALID,0,VALID,103.535,VALID,0.105969,VALID,24.3742,VALID,118,VALID,0.915625,
2010-09-20, 01:02:05,VALID,1008.02,VALID,0,VALID,103.535,VALID,0.105969,VALID,24.3547,VALID,114,VALID,0.703516,
2010-09-20, 01:03:05,VALID,1007.99,VALID,0,VALID,103.527,VALID,0.105969,VALID,24.3547,VALID,108,VALID,0.580859,
2010-09-20, 01:04:05,VALID,1007.98,VALID,0,VALID,103.52,VALID,0.105969,VALID,24.3547,VALID,108,VALID,0.197266,
2010-09-20, 01:05:05,VALID,1007.97,VALID,0,VALID,103.52,VALID,0.105969,VALID,24.3547,VALID,107,VALID,0.646094,
2010-09-20, 01:06:05,VALID,1007.96,VALID,0,VALID,103.527,VALID,0,VALID,24.3761,VALID,107,VALID,0,
2010-09-20, 01:07:05,VALID,1007.97,VALID,0,VALID,103.504,VALID,0.105969,VALID,24.3761,VALID,107,VALID,0.144922,
2010-09-20, 01:08:05,VALID,1007.93,VALID,0,VALID,103.512,VALID,0,VALID,24.3352,VALID,107,VALID,0.262109,
2010-09-20, 01:09:05,VALID,1007.94,VALID,0,VALID,103.542,VALID,0.105969,VALID,24.3352,VALID,108,VALID,0.644531,
2010-09-20, 01:10:05,VALID,1007.93,VALID,0,VALID,103.535,VALID,0.105969,VALID,24.3352,VALID,121,VALID,0.388281,
2010-09-20, 01:11:05,VALID,1007.93,VALID,0,VALID,103.535,VALID,0,VALID,24.3566,VALID,126,VALID,0.501172,
2010-09-20, 01:12:05,VALID,1007.96,VALID,0,VALID,103.527,VALID,0.105969,VALID,24.3566,VALID,132,VALID,0.446875,
2010-09-20, 01:13:05,VALID,1007.93,VALID,0,VALID,103.52,VALID,0.105969,VALID,24.3371,VALID,162,VALID,0.845312,
2010-09-20, 01:14:05,VALID,1007.9,VALID,0,VALID,103.527,VALID,0.105969,VALID,24.3371,VALID,156,VALID,0.819141,
2010-09-20, 01:15:05,VALID,1007.9,VALID,0,VALID,103.535,VALID,0.105969,VALID,24.3176,VALID,158,VALID,0.809375,
2010-09-20, 01:16:05,VALID,1007.87,VALID,0,VALID,103.55,VALID,0.105969,VALID,24.2981,VALID,156,VALID,0.623828,
2010-09-20, 01:17:05,VALID,1007.88,VALID,0,VALID,103.55,VALID,0.105969,VALID,24.2786,VALID,158,VALID,0.732422,
2010-09-20, 01:18:05,VALID,1007.88,VALID,0,VALID,103.527,VALID,0,VALID,24.2786,VALID,162,VALID,0.844141,
2010-09-20, 01:19:05,VALID,1007.88,VALID,0,VALID,103.542,VALID,0,VALID,24.2573,VALID,146,VALID,0.817187,
2010-09-20, 01:20:05,VALID,1007.9,VALID,0,VALID,103.55,VALID,0.105969,VALID,24.2591,VALID,166,VALID,0.516797,
2010-09-20, 01:21:05,VALID,1007.91,VALID,0,VALID,103.535,VALID,0.105969,VALID,24.2786,VALID,166,VALID,0.851953,
2010-09-20, 01:22:05,VALID,1007.95,VALID,0,VALID,103.504,VALID,0.105969,VALID,24.2378,VALID,160,VALID,0.537109,
2010-09-20, 01:23:05,VALID,1007.96,VALID,0,VALID,103.535,VALID,0.105969,VALID,24.2591,VALID,180,VALID,0.546094,
2010-09-20, 01:24:05,VALID,1007.97,VALID,0,VALID,103.55,VALID,0.105969,VALID,24.2378,VALID,173,VALID,0.655859,
2010-09-20, 01:25:05,VALID,1007.96,VALID,0,VALID,103.535,VALID,0,VALID,24.2591,VALID,165,VALID,0.65,
2010-09-20, 01:26:05,VALID,1007.94,VALID,0,VALID,103.535,VALID,0,VALID,24.2591,VALID,166,VALID,0.589453,
2010-09-20, 01:27:05,VALID,1007.95,VALID,0,VALID,103.535,VALID,0,VALID,24.2378,VALID,162,VALID,0.672656,
2010-09-20, 01:28:05,VALID,1007.92,VALID,0,VALID,103.542,VALID,0,VALID,24.2378,VALID,163,VALID,1.04297,
2010-09-20, 01:29:05,VALID,1007.91,VALID,0,VALID,103.558,VALID,0.105969,VALID,24.2591,VALID,163,VALID,0.883203,
2010-09-20, 01:30:05,VALID,1007.91,VALID,0,VALID,103.542,VALID,0,VALID,24.2378,VALID,153,VALID,0.779297,
2010-09-20, 01:31:05,VALID,1007.91,VALID,0,VALID,103.55,VALID,0,VALID,24.2378,VALID,173,VALID,0.855078,
2010-09-20, 01:32:05,VALID,1007.89,VALID,0,VALID,103.55,VALID,0,VALID,24.2591,VALID,173,VALID,0.885938,
2010-09-20, 01:33:05,VALID,1007.89,VALID,0,VALID,103.542,VALID,0,VALID,24.2573,VALID,168,VALID,0.70625,
2010-09-20, 01:34:05,VALID,1007.9,VALID,0,VALID,103.542,VALID,0,VALID,24.2378,VALID,163,VALID,0.625391,
2010-09-20, 01:35:05,VALID,1007.9,VALID,0,VALID,103.55,VALID,0,VALID,24.2786,VALID,146,VALID,0.8375,
2010-09-20, 01:36:05,VALID,1007.88,VALID,0,VALID,103.542,VALID,0,VALID,24.2573,VALID,148,VALID,0.878516,
2010-09-20, 01:37:05,VALID,1007.85,VALID,0,VALID,103.55,VALID,0,VALID,24.2768,VALID,159,VALID,0.872266,
2010-09-20, 01:38:05,VALID,1007.89,VALID,0,VALID,103.55,VALID,0,VALID,24.2786,VALID,150,VALID,1.13867,
2010-09-20, 01:39:05,VALID,1007.87,VALID,0,VALID,103.535,VALID,0,VALID,24.2573,VALID,138,VALID,1.075,
2010-09-20, 01:40:05,VALID,1007.86,VALID,0,VALID,103.535,VALID,0.105969,VALID,24.2786,VALID,148,VALID,0.705859,
2010-09-20, 01:41:05,VALID,1007.84,VALID,0,VALID,103.52,VALID,0,VALID,24.2786,VALID,158,VALID,1.82656,
2010-09-20, 01:42:05,VALID,1007.82,VALID,0,VALID,103.527,VALID,0.105969,VALID,24.2573,VALID,172,VALID,1.34609,
2010-09-20, 01:43:05,VALID,1007.82,VALID,0,VALID,103.504,VALID,0.105969,VALID,24.2786,VALID,148,VALID,1.07266,
2010-09-20, 01:44:05,VALID,1007.83,VALID,0,VALID,103.504,VALID,0.105969,VALID,24.2378,VALID,173,VALID,0.8875,
2010-09-20, 01:45:05,VALID,1007.81,VALID,0,VALID,103.489,VALID,0.105969,VALID,24.2378,VALID,185,VALID,1.15039,
2010-09-20, 01:46:05,VALID,1007.81,VALID,0,VALID,103.497,VALID,0,VALID,24.2378,VALID,187,VALID,1.21055,
2010-09-20, 01:47:05,VALID,1007.82,VALID,0,VALID,103.504,VALID,0,VALID,24.2183,VALID,185,VALID,0.770312,
2010-09-20, 01:48:05,VALID,1007.78,VALID,0,VALID,103.497,VALID,0,VALID,24.2202,VALID,185,VALID,0.653516,
2010-09-20, 01:49:04,VALID,1007.77,VALID,0,VALID,103.504,VALID,0,VALID,24.1988,VALID,163,VALID,1.05391,
2010-09-20, 01:50:04,VALID,1007.81,VALID,0,VALID,103.504,VALID,0.105969,VALID,24.1988,VALID,160,VALID,0.637891,
2010-09-20, 01:51:04,VALID,1007.78,VALID,0,VALID,103.489,VALID,0.105969,VALID,24.2007,VALID,155,VALID,1.07852,
2010-09-20, 01:52:04,VALID,1007.81,VALID,0,VALID,103.481,VALID,0.105969,VALID,24.1775,VALID,160,VALID,0.748828,
2010-09-20, 01:53:04,VALID,1007.8,VALID,0,VALID,103.481,VALID,0.105969,VALID,24.1793,VALID,176,VALID,1.48008,
2010-09-20, 01:54:04,VALID,1007.79,VALID,0,VALID,103.481,VALID,0.105969,VALID,24.2007,VALID,179,VALID,1.38125,
2010-09-20, 01:55:04,VALID,1007.77,VALID,0,VALID,103.474,VALID,0.105969,VALID,24.2007,VALID,143,VALID,0.761719,
2010-09-20, 01:56:04,VALID,1007.76,VALID,0,VALID,103.466,VALID,0.105969,VALID,24.1793,VALID,152,VALID,0.547266,
2010-09-20, 01:57:04,VALID,1007.74,VALID,0,VALID,103.451,VALID,0.105969,VALID,24.1793,VALID,172,VALID,0.693359,
2010-09-20, 01:58:04,VALID,1007.75,VALID,0,VALID,103.466,VALID,0,VALID,24.1812,VALID,163,VALID,0.73125,
2010-09-20, 01:59:04,VALID,1007.74,VALID,0,VALID,103.459,VALID,0.105969,VALID,24.1404,VALID,172,VALID,0.805859,
2010-09-20, 02:00:04,VALID,1007.75,VALID,0,VALID,103.436,VALID,0,VALID,24.1404,VALID,125,VALID,0.970312,
2010-09-20, 02:01:04,VALID,1007.75,VALID,0,VALID,103.443,VALID,0.105969,VALID,24.1617,VALID,130,VALID,1.18906,
2010-09-20, 02:02:04,VALID,1007.75,VALID,0,VALID,103.443,VALID,0.105969,VALID,24.1617,VALID,140,VALID,0.910156,
2010-09-20, 02:03:04,VALID,1007.74,VALID,0,VALID,103.466,VALID,0.105969,VALID,24.1404,VALID,152,VALID,0.524609,
2010-09-20, 02:04:04,VALID,1007.71,VALID,0,VALID,103.474,VALID,0.105969,VALID,24.1404,VALID,136,VALID,0.683203,
2010-09-20, 02:05:04,VALID,1007.71,VALID,0,VALID,103.466,VALID,0.105969,VALID,24.1404,VALID,137,VALID,0.235547,
2010-09-20, 02:06:04,VALID,1007.73,VALID,0,VALID,103.474,VALID,0.105969,VALID,24.1404,VALID,137,VALID,0,
2010-09-20, 02:07:04,VALID,1007.71,VALID,0,VALID,103.459,VALID,0.105969,VALID,24.1617,VALID,177,VALID,0.459375,
2010-09-20, 02:08:04,VALID,1007.73,VALID,0,VALID,103.481,VALID,0.105969,VALID,24.1422,VALID,151,VALID,0.721484,
2010-09-20, 02:09:04,VALID,1007.74,VALID,0,VALID,103.474,VALID,0.105969,VALID,24.1209,VALID,162,VALID,0.737109,
2010-09-20, 02:10:04,VALID,1007.76,VALID,0,VALID,103.497,VALID,0.105969,VALID,24.1209,VALID,169,VALID,0.448047,
2010-09-20, 02:11:04,VALID,1007.74,VALID,0,VALID,103.489,VALID,0.105969,VALID,24.1209,VALID,160,VALID,0.394141,
2010-09-20, 02:12:04,VALID,1007.74,VALID,0,VALID,103.504,VALID,0.105969,VALID,24.1191,VALID,160,VALID,0.126953,
2010-09-20, 02:13:04,VALID,1007.74,VALID,0,VALID,103.497,VALID,0.105969,VALID,24.1209,VALID,105,VALID,0.697266,
2010-09-20, 02:14:04,VALID,1007.72,VALID,0,VALID,103.497,VALID,0.211938,VALID,24.1404,VALID,101,VALID,0.491797,
2010-09-20, 02:15:04,VALID,1007.75,VALID,0,VALID,103.512,VALID,0.105969,VALID,24.1404,VALID,101,VALID,0.177734,
2010-09-20, 02:16:04,VALID,1007.73,VALID,0,VALID,103.504,VALID,0.105969,VALID,24.1404,VALID,101,VALID,0,
2010-09-20, 02:17:04,VALID,1007.73,VALID,0,VALID,103.474,VALID,0.105969,VALID,24.1599,VALID,101,VALID,0.304297,
2010-09-20, 02:18:04,VALID,1007.74,VALID,0,VALID,103.527,VALID,0.105969,VALID,24.1404,VALID,130,VALID,0.310156,
2010-09-20, 02:19:04,VALID,1007.76,VALID,0,VALID,103.504,VALID,0.105969,VALID,24.1404,VALID,130,VALID,0.672266,
2010-09-20, 02:20:04,VALID,1007.76,VALID,0,VALID,103.512,VALID,0,VALID,24.1599,VALID,130,VALID,0.253125,
2010-09-20, 02:21:04,VALID,1007.73,VALID,0,VALID,103.535,VALID,0.105969,VALID,24.1404,VALID,130,VALID,0.625,
2010-09-20, 02:22:04,VALID,1007.76,VALID,0,VALID,103.512,VALID,0.105969,VALID,24.1404,VALID,130,VALID,0.360938,
2010-09-20, 02:23:04,VALID,1007.74,VALID,0,VALID,103.504,VALID,0.105969,VALID,24.1599,VALID,130,VALID,0.289453,
2010-09-20, 02:24:04,VALID,1007.73,VALID,0,VALID,103.497,VALID,0.105969,VALID,24.1404,VALID,110,VALID,0.708594,
2010-09-20, 02:25:04,VALID,1007.76,VALID,0,VALID,103.52,VALID,0.105969,VALID,24.1404,VALID,101,VALID,0.561328,
2010-09-20, 02:26:04,VALID,1007.72,VALID,0,VALID,103.52,VALID,0.105969,VALID,24.1209,VALID,127,VALID,0.698047,
2010-09-20, 02:27:04,VALID,1007.72,VALID,0,VALID,103.504,VALID,0.105969,VALID,24.1209,VALID,118,VALID,0.48125,
2010-09-20, 02:28:04,VALID,1007.74,VALID,0,VALID,103.504,VALID,0.105969,VALID,24.1422,VALID,108,VALID,0.779688,
2010-09-20, 02:29:04,VALID,1007.72,VALID,0,VALID,103.512,VALID,0.105969,VALID,24.1014,VALID,108,VALID,0.419922,
2010-09-20, 02:30:04,VALID,1007.71,VALID,0,VALID,103.481,VALID,0,VALID,24.1422,VALID,118,VALID,0.732813,
2010-09-20, 02:31:04,VALID,1007.75,VALID,0,VALID,103.489,VALID,0.105969,VALID,24.1422,VALID,117,VALID,0.851563,
2010-09-20, 02:32:04,VALID,1007.72,VALID,0,VALID,103.489,VALID,0.105969,VALID,24.1422,VALID,112,VALID,0.585938,
2010-09-20, 02:33:04,VALID,1007.73,VALID,0,VALID,103.497,VALID,0.105969,VALID,24.1404,VALID,132,VALID,0.799219,
2010-09-20, 02:34:04,VALID,1007.75,VALID,0,VALID,103.489,VALID,0.105969,VALID,24.1617,VALID,103,VALID,0.709375,
2010-09-20, 02:35:04,VALID,1007.78,VALID,0,VALID,103.535,VALID,0.105969,VALID,24.1404,VALID,103,VALID,0.904297,
2010-09-20, 02:36:04,VALID,1007.77,VALID,0,VALID,103.527,VALID,0,VALID,24.1209,VALID,94,VALID,1.04414,
2010-09-20, 02:37:04,VALID,1007.75,VALID,0,VALID,103.512,VALID,0,VALID,24.1422,VALID,117,VALID,0.951563,
2010-09-20, 02:38:04,VALID,1007.76,VALID,0,VALID,103.512,VALID,0,VALID,24.1422,VALID,100,VALID,0.682422,
2010-09-20, 02:39:04,VALID,1007.73,VALID,0,VALID,103.52,VALID,0.105969,VALID,24.1404,VALID,100,VALID,0.55,
2010-09-20, 02:40:04,VALID,1007.71,VALID,0,VALID,103.497,VALID,0.105969,VALID,24.1617,VALID,100,VALID,0.976953,
2010-09-20, 02:41:04,VALID,1007.72,VALID,0,VALID,103.52,VALID,0,VALID,24.1617,VALID,88,VALID,0.301562,
2010-09-20, 02:42:04,VALID,1007.72,VALID,0,VALID,103.535,VALID,0,VALID,24.1422,VALID,81,VALID,0.990625,
2010-09-20, 02:43:04,VALID,1007.7,VALID,0,VALID,103.535,VALID,0,VALID,24.1209,VALID,76,VALID,0.971875,
2010-09-20, 02:44:04,VALID,1007.72,VALID,0,VALID,103.535,VALID,0.105969,VALID,24.1014,VALID,79,VALID,1.21055,
2010-09-20, 02:45:04,VALID,1007.72,VALID,0,VALID,103.535,VALID,0,VALID,24.1209,VALID,83,VALID,0.874609,
2010-09-20, 02:46:04,VALID,1007.7,VALID,0,VALID,103.527,VALID,0.105969,VALID,24.1014,VALID,85,VALID,0.958594,
2010-09-20, 02:47:04,VALID,1007.7,VALID,0,VALID,103.535,VALID,0.105969,VALID,24.1014,VALID,90,VALID,1.23594,
2010-09-20, 02:48:04,VALID,1007.72,VALID,0,VALID,103.535,VALID,0.105969,VALID,24.1014,VALID,82,VALID,0.997656,
2010-09-20, 02:49:04,VALID,1007.69,VALID,0,VALID,103.527,VALID,0.105969,VALID,24.1227,VALID,80,VALID,1.13164,
2010-09-20, 02:50:04,VALID,1007.72,VALID,0,VALID,103.52,VALID,0.105969,VALID,24.1014,VALID,86,VALID,1.10586,
2010-09-20, 02:51:04,VALID,1007.72,VALID,0,VALID,103.535,VALID,0,VALID,24.1032,VALID,80,VALID,0.926953,
2010-09-20, 02:52:04,VALID,1007.69,VALID,0,VALID,103.52,VALID,0,VALID,24.1032,VALID,86,VALID,0.811719,
2010-09-20, 02:53:04,VALID,1007.67,VALID,0,VALID,103.55,VALID,0,VALID,24.0837,VALID,83,VALID,1.17734,
2010-09-20, 02:54:04,VALID,1007.66,VALID,0,VALID,103.55,VALID,0,VALID,24.0429,VALID,72,VALID,1.24805,
2010-09-20, 02:55:04,VALID,1007.65,VALID,0,VALID,103.55,VALID,0.105969,VALID,24.0837,VALID,80,VALID,0.880078,
2010-09-20, 02:56:04,VALID,1007.65,VALID,0,VALID,103.542,VALID,0.105969,VALID,24.0643,VALID,81,VALID,1.65313,
2010-09-20, 02:57:04,VALID,1007.64,VALID,0,VALID,103.573,VALID,0,VALID,24.0448,VALID,79,VALID,1.00547,
2010-09-20, 02:58:04,VALID,1007.64,VALID,0,VALID,103.55,VALID,0,VALID,24.0448,VALID,98,VALID,0.692969,
2010-09-20, 02:59:04,VALID,1007.66,VALID,0,VALID,103.55,VALID,0,VALID,24.0253,VALID,76,VALID,0.643359,
2010-09-20, 03:00:04,VALID,1007.63,VALID,0,VALID,103.55,VALID,0,VALID,24.004,VALID,100,VALID,0.744531,
2010-09-20, 03:01:04,VALID,1007.63,VALID,0,VALID,103.558,VALID,0.105969,VALID,23.9845,VALID,93,VALID,0.869141,
2010-09-20, 03:02:04,VALID,1007.65,VALID,0,VALID,103.565,VALID,0,VALID,24.0235,VALID,90,VALID,0.618359,
2010-09-20, 03:03:04,VALID,1007.63,VALID,0,VALID,103.558,VALID,0.105969,VALID,24.004,VALID,89,VALID,0.451172,
2010-09-20, 03:04:04,VALID,1007.61,VALID,0,VALID,103.565,VALID,0.105969,VALID,24.0235,VALID,94,VALID,0.478516,
2010-09-20, 03:05:04,VALID,1007.62,VALID,0,VALID,103.565,VALID,0.105969,VALID,24.0253,VALID,91,VALID,0.392578,
2010-09-20, 03:06:04,VALID,1007.57,VALID,0,VALID,103.565,VALID,0.105969,VALID,24.0253,VALID,84,VALID,0.577734,
2010-09-20, 03:07:04,VALID,1007.6,VALID,0,VALID,103.558,VALID,0,VALID,23.9863,VALID,73,VALID,1.03047,
2010-09-20, 03:08:04,VALID,1007.57,VALID,0,VALID,103.55,VALID,0,VALID,23.9845,VALID,67,VALID,0.777734,
2010-09-20, 03:09:04,VALID,1007.56,VALID,0,VALID,103.573,VALID,0,VALID,24.0058,VALID,72,VALID,0.202344,
2010-09-20, 03:10:04,VALID,1007.55,VALID,0,VALID,103.596,VALID,0,VALID,24.0058,VALID,82,VALID,0.864453,
2010-09-20, 03:11:04,VALID,1007.53,VALID,0,VALID,103.596,VALID,0.105969,VALID,23.9845,VALID,99,VALID,0.736328,
2010-09-20, 03:12:04,VALID,1007.53,VALID,0,VALID,103.573,VALID,0.105969,VALID,24.0058,VALID,99,VALID,0.5375,
2010-09-20, 03:13:04,VALID,1007.51,VALID,0,VALID,103.573,VALID,0,VALID,23.9863,VALID,100,VALID,0.587891,
2010-09-20, 03:14:04,VALID,1007.49,VALID,0,VALID,103.565,VALID,0,VALID,23.9863,VALID,100,VALID,0.251953,
2010-09-20, 03:15:04,VALID,1007.51,VALID,0,VALID,103.565,VALID,0,VALID,23.965,VALID,110,VALID,0.84375,
2010-09-20, 03:16:04,VALID,1007.47,VALID,0,VALID,103.565,VALID,0.105969,VALID,23.965,VALID,107,VALID,0.583984,
2010-09-20, 03:17:04,VALID,1007.46,VALID,0,VALID,103.573,VALID,0,VALID,23.9863,VALID,107,VALID,0.54375,
2010-09-20, 03:18:04,VALID,1007.46,VALID,0,VALID,103.558,VALID,0,VALID,23.9668,VALID,105,VALID,0.359375,
2010-09-20, 03:19:04,VALID,1007.49,VALID,0,VALID,103.581,VALID,0.105969,VALID,23.9668,VALID,70,VALID,0.735937,
2010-09-20, 03:20:04,VALID,1007.44,VALID,0,VALID,103.581,VALID,0.105969,VALID,23.9455,VALID,81,VALID,0.839453,
2010-09-20, 03:21:04,VALID,1007.44,VALID,0,VALID,103.581,VALID,0,VALID,23.9668,VALID,58,VALID,0.431641,
2010-09-20, 03:22:04,VALID,1007.47,VALID,0,VALID,103.565,VALID,0,VALID,23.9668,VALID,58,VALID,0.602344,
2010-09-20, 03:23:04,VALID,1007.46,VALID,0,VALID,103.573,VALID,0.105969,VALID,23.9473,VALID,73,VALID,0.466016,
2010-09-20, 03:24:04,VALID,1007.43,VALID,0,VALID,103.573,VALID,0,VALID,23.9278,VALID,99,VALID,0.486328,
2010-09-20, 03:25:04,VALID,1007.42,VALID,0,VALID,103.558,VALID,0.105969,VALID,23.9278,VALID,99,VALID,0.0816406,
2010-09-20, 03:26:04,VALID,1007.37,VALID,0,VALID,103.588,VALID,0,VALID,23.9278,VALID,99,VALID,0.00195313,
2010-09-20, 03:27:04,VALID,1007.35,VALID,0,VALID,103.581,VALID,0,VALID,23.9065,VALID,111,VALID,0.416016,
2010-09-20, 03:28:04,VALID,1007.33,VALID,0,VALID,103.581,VALID,0.105969,VALID,23.9065,VALID,111,VALID,0,
2010-09-20, 03:29:04,VALID,1007.31,VALID,0,VALID,103.588,VALID,0.105969,VALID,23.9065,VALID,110,VALID,0,
2010-09-20, 03:30:04,VALID,1007.31,VALID,0,VALID,103.573,VALID,0,VALID,23.9065,VALID,34,VALID,0,
2010-09-20, 03:31:04,VALID,1007.29,VALID,0,VALID,103.588,VALID,0,VALID,23.9278,VALID,33,VALID,0,
2010-09-20, 03:32:04,VALID,1007.27,VALID,0,VALID,103.596,VALID,0,VALID,23.9084,VALID,18,VALID,0,
2010-09-20, 03:33:04,VALID,1007.27,VALID,0,VALID,103.603,VALID,0.105969,VALID,23.8676,VALID,18,VALID,0,
2010-09-20, 03:34:04,VALID,1007.29,VALID,0,VALID,103.581,VALID,0,VALID,23.8286,VALID,18,VALID,0,
2010-09-20, 03:35:04,VALID,1007.3,VALID,0,VALID,103.581,VALID,0,VALID,23.8481,VALID,18,VALID,0,
2010-09-20, 03:36:04,VALID,1007.32,VALID,0,VALID,103.573,VALID,0,VALID,23.8499,VALID,18,VALID,0,
2010-09-20, 03:37:04,VALID,1007.35,VALID,0,VALID,103.573,VALID,0,VALID,23.8499,VALID,18,VALID,0,
2010-09-20, 03:38:04,VALID,1007.33,VALID,0,VALID,103.565,VALID,0,VALID,23.8499,VALID,18,VALID,0,
2010-09-20, 03:39:04,VALID,1007.37,VALID,0,VALID,103.573,VALID,0,VALID,23.8304,VALID,18,VALID,0,
2010-09-20, 03:40:04,VALID,1007.37,VALID,0,VALID,103.588,VALID,0,VALID,23.8109,VALID,18,VALID,0,
2010-09-20, 03:41:04,VALID,1007.38,VALID,0,VALID,103.573,VALID,0,VALID,23.8304,VALID,18,VALID,0,